Point Salines, Grenada

12:25 PM AST on October 20, 2017 (GMT -0400)
Point Salines International

Weather History for TGPY - May, 2013

Change the Weather History Date:

Friday, May 10, 2013

  Actual Average Record
Temperature  
Mean Temperature 81 °F -  
Max Temperature 86 °F 85 °F 89 °F (1998)
Min Temperature 76 °F 77 °F 75 °F (2012)
Cooling Degree Days 16    
Growing Degree Days 31 (Base 50)    
Moisture  
Dew Point 75 °F    
Average Humidity 79    
Maximum Humidity 94    
Minimum Humidity 63    
Precipitation  
Precipitation 0.00 in - - ()
Sea Level Pressure  
Sea Level Pressure 30.00 in    
Wind  
Wind Speed 10 mph ()    
Max Wind Speed 18 mph    
Max Gust Speed -    
Visibility 7.8 miles    
Events      
Averages and records for this station are not official NWS values.
T = Trace of Precipitation, MM = Missing Value Source: Averaged Metar Reports

Daily Weather History Graph

Daily Weather History Graph

Search for Another Location

Airport or City:

Trip Planner

Search our weather history database for the weather conditions in past years. The results will help you decide how hot, cold, wet, or windy it might be!

Date:

Astronomy

May. 10, 2013 Rise Set
Actual Time 5:44 AM AST 6:22 PM AST
Civil Twilight 5:22 AM AST 6:45 PM AST
Nautical Twilight 4:55 AM AST 7:11 PM AST
Astronomical Twilight 4:29 AM AST 7:37 PM AST
Moon 6:06 AM AST (5/10) 7:04 PM AST (5/10)
Length of Visible Light 13h 23m
Length of Day
12h 38m
New Moon, 0% of the Moon is Illuminated
May 10
New Moon
May 18
First Quarter
May 25
Full
May 31
Last Quarter
Jun 8
New

Hourly Weather History & Observations

Time (AST) Temp. Heat Index Dew Point Humidity Pressure Visibility Wind Dir Wind Speed Gust Speed Precip Events Conditions
12:00 AM 78.8 °F - 75.2 °F 89% 30.04 in 6.2 mi East 8.1 mph - N/A   Partly Cloudy
1:00 AM 78.8 °F - 73.4 °F 83% 30.04 in 6.2 mi ESE 9.2 mph - N/A   Partly Cloudy
2:00 AM 79 °F - 74 °F 79% 30.03 in 12 mi East 8.1 mph - -   Widespread Dust
2:00 AM 78.8 °F - 73.4 °F 83% 30.01 in 6.2 mi East 8.1 mph - N/A   Partly Cloudy
3:00 AM 78.8 °F - 73.4 °F 83% 30.01 in 6.2 mi East 9.2 mph - N/A   Partly Cloudy
4:00 AM 78.8 °F - 73.4 °F 83% 30.01 in 6.2 mi East 10.4 mph - N/A   Partly Cloudy
5:00 AM 78 °F - 74 °F 84% 30.00 in 6 mi East 9.2 mph - -   Widespread Dust
5:00 AM 78.8 °F - 73.4 °F 83% 29.98 in 6.2 mi East 9.2 mph - N/A   Partly Cloudy
6:00 AM 77.0 °F - 73.4 °F 89% 29.98 in 6.2 mi East 5.8 mph - N/A   Scattered Clouds
7:00 AM 80.6 °F 86.2 °F 75.2 °F 84% 30.01 in 6.2 mi East 8.1 mph - N/A   Mostly Cloudy
8:00 AM 83 °F - 75 °F 70% 30.02 in 12 mi East 13.8 mph - -   Widespread Dust
8:00 AM 84.2 °F 92.3 °F 75.2 °F 74% 30.01 in 6.2 mi East 13.8 mph - N/A   Mostly Cloudy
9:00 AM 84.2 °F 92.3 °F 75.2 °F 74% 30.04 in 6.2 mi East 15.0 mph - N/A   Scattered Clouds
10:00 AM 84.2 °F 92.3 °F 75.2 °F 74% 30.04 in 6.2 mi ESE 15.0 mph - N/A   Scattered Clouds
11:00 AM 85 °F - 74 °F 63% 30.04 in 16 mi SE 16.1 mph - -   Widespread Dust
11:00 AM 86.0 °F 93.4 °F 73.4 °F 66% 30.04 in 6.2 mi SE 16.1 mph - N/A   Mostly Cloudy
12:00 PM 86.0 °F 95.1 °F 75.2 °F 70% 30.01 in 6.2 mi SE 18.4 mph - N/A   Mostly Cloudy
1:00 PM 86.0 °F 95.1 °F 75.2 °F 70% 29.98 in 6.2 mi SE 18.4 mph - N/A   Mostly Cloudy
2:00 PM 85 °F - 75 °F 66% 29.98 in 16 mi SSE 16.1 mph - -   Partly Cloudy
2:00 PM 84.2 °F 92.3 °F 75.2 °F 74% 29.98 in 6.2 mi SSE 16.1 mph - N/A   Mostly Cloudy
3:00 PM 84.2 °F 92.3 °F 75.2 °F 74% 29.95 in 6.2 mi SSE 16.1 mph - N/A   Scattered Clouds
4:00 PM 84.2 °F 92.3 °F 75.2 °F 74% 29.95 in 6.2 mi SE 11.5 mph - N/A   Scattered Clouds
5:00 PM 83 °F - 76 °F 74% 29.95 in 12 mi SE 10.4 mph - -   Widespread Dust
5:00 PM 82.4 °F 90.9 °F 77.0 °F 84% 29.95 in 6.2 mi SE 10.4 mph - N/A   Mostly Cloudy
6:00 PM 82.4 °F 89.5 °F 75.2 °F 79% 29.95 in 6.2 mi ESE 9.2 mph - N/A   Partly Cloudy
7:00 PM 80.6 °F 86.2 °F 75.2 °F 84% 29.95 in 6.2 mi ESE 10.4 mph - N/A   Partly Cloudy
8:00 PM 80 °F - 76 °F 83% 29.97 in 12 mi ESE 8.1 mph - -   Widespread Dust
8:00 PM 80.6 °F 86.2 °F 75.2 °F 84% 29.98 in 6.2 mi ESE 8.1 mph - N/A   Partly Cloudy
11:00 PM 79 °F - 76 °F 89% 30.01 in 12 mi East 5.8 mph - -   Widespread Dust
11:00 PM 78.8 °F - 77.0 °F 94% 30.01 in 6.2 mi East 5.8 mph - N/A   Scattered Clouds